Volver al catálogo

STARLINK-11489

ActivoComunicacionesVLEO
NORAD 62271·PAYLOAD·🇺🇸 United States

Lanzado Dec 8, 2024 desde Cape Canaveral Space Force Station

Loading…

Próximos Pases (próximas 24 horas)

TLE

ActualizadoSource: CelesTrak SupGP

Época: Sep 14, 2026, 20:55 UTC

1 62271C 24237E   26257.87201389  .00018654  00000+0  14480-3 0  2576
2 62271  43.0005 356.8426 0001692 279.1137 291.5385 15.70843587    16

Sigue STARLINK-11489 en tiempo real con AllMySat

Download on the App Store